Weather History for KRQE - March, 2014

Change the Weather History Date:

Tuesday, March 25, 2014

  Actual Average Record
Temperature  
Mean Temperature 42 °F -  
Max Temperature 66 °F - - ()
Min Temperature 19 °F - - ()
Degree Days  
Heating Degree Days 24    
Moisture  
Dew Point 11 °F    
Average Humidity 33    
Maximum Humidity 58    
Minimum Humidity 10    
Precipitation  
Precipitation 0.00 in - - ()
Sea Level Pressure  
Sea Level Pressure 29.97 in    
Wind  
Wind Speed 3 mph (South)    
Max Wind Speed 15 mph    
Max Gust Speed 25 mph    
Visibility 10 miles    
Events      
T = Trace of Precipitation, MM = Missing Value Source: NWS Daily Summary

Daily Weather History Graph

Daily Weather History Graph

Search for Another Location

Airport or City:

Trip Planner

Search our weather history database for the weather conditions in past years. The results will help you decide how hot, cold, wet, or windy it might be!

Date:

Astronomy

Mar. 25, 2014 Rise Set
Actual Time 7:12 AM MDT 7:32 PM MDT
Civil Twilight 6:47 AM MDT 7:57 PM MDT
Nautical Twilight 6:17 AM MDT 8:27 PM MDT
Astronomical Twilight 5:46 AM MDT 8:58 PM MDT
Moon 3:26 AM MDT (3/25) 2:16 PM MDT (3/25)
Length of Visible Light 13h 10m
Length of Day
12h 19m
Waning Crescent, 31% of the Moon is Illuminated
Mar 25
Waning Crescent
Mar 30
New
Apr 7
First Quarter
Apr 15
Full
Apr 22
Last Quarter

Hourly Weather History & Observations

Time (MDT) Temp. Windchill Dew Point Humidity Pressure Visibility Wind Dir Wind Speed Gust Speed Precip Events Conditions
12:53 AM 28.0 °F - 1.0 °F 31% 30.09 in 10.0 mi Calm Calm - N/A   Clear
1:53 AM 24.1 °F - 1.0 °F 37% 30.09 in 10.0 mi Calm Calm - N/A   Clear
2:53 AM 21.9 °F - 1.9 °F 42% 30.08 in 10.0 mi Calm Calm - N/A   Clear
3:53 AM 21.0 °F - -0.0 °F 40% 30.07 in 10.0 mi Calm Calm - N/A   Clear
4:53 AM 19.9 °F - 1.0 °F 44% 30.08 in 10.0 mi Calm Calm - N/A   Clear
5:53 AM 19.9 °F 14.9 °F -0.9 °F 40% 30.08 in 10.0 mi North 3.5 mph - N/A   Clear
6:53 AM 19.9 °F - 1.0 °F 44% 30.09 in 10.0 mi Calm Calm - N/A   Clear
7:53 AM 19.9 °F - 3.0 °F 48% 30.13 in 10.0 mi Calm Calm - N/A   Clear
8:53 AM 33.1 °F 30.0 °F 5.0 °F 31% 30.10 in 10.0 mi SSE 3.5 mph - N/A   Clear
9:53 AM 45.0 °F - 6.1 °F 20% 30.08 in 10.0 mi Calm Calm - N/A   Clear
10:53 AM 55.0 °F - 5.0 °F 13% 30.04 in 10.0 mi Variable 3.5 mph - N/A   Clear
11:53 AM 61.0 °F - 3.9 °F 10% 29.96 in 10.0 mi Variable 3.5 mph - N/A   Clear
12:53 PM 63.0 °F - 6.1 °F 11% 29.93 in 10.0 mi North - - N/A   Clear
1:53 PM 64.0 °F - 9.0 °F 12% 29.90 in 10.0 mi Variable 3.5 mph - N/A   Scattered Clouds
2:53 PM 61.0 °F - 10.9 °F 14% 29.88 in 10.0 mi SSW 12.7 mph 24.2 mph N/A   Overcast
3:53 PM 57.9 °F - 19.9 °F 23% 29.91 in 10.0 mi WSW 13.8 mph 25.3 mph 0.00 in   Mostly Cloudy
4:53 PM 60.1 °F - 18.0 °F 20% 29.87 in 10.0 mi North 3.5 mph - N/A   Clear
5:53 PM 57.9 °F - 17.1 °F 20% 29.86 in 10.0 mi Calm Calm - N/A   Mostly Cloudy
6:53 PM 54.0 °F - 25.0 °F 33% 29.88 in 10.0 mi South 15.0 mph - N/A   Partly Cloudy
7:53 PM 50.0 °F - 27.0 °F 41% 29.88 in 10.0 mi South 10.4 mph - N/A   Clear
8:53 PM 46.9 °F - 28.0 °F 48% 29.86 in 10.0 mi South 4.6 mph - N/A   Mostly Cloudy
9:53 PM 43.0 °F 41.3 °F 27.0 °F 53% 29.83 in 10.0 mi SSW 3.5 mph - N/A   Clear
10:53 PM 45.0 °F 40.6 °F 30.0 °F 56% 29.77 in 10.0 mi South 8.1 mph - N/A   Mostly Cloudy
11:53 PM 43.0 °F 39.5 °F 28.9 °F 58% 29.74 in 10.0 mi South 5.8 mph - N/A   Scattered Clouds